Regional Weather Roundup
Issued by NWS Cleveland, OH

Home | Current Version | Previous Version | Text Only | Print | Product List | Glossary On
Versions: 1 2 3 4 5 6 7 8 9 10 11 12 13 14 15 16 17 18 19 20 21 22 23 24 25 26 27 28 29 30 31 32 33 34 35 36 37 38 39 40 41 42 43 44 45 46 47 48 49 50
000
ASUS41 KCLE 181910
RWRCLE
OHIO REGIONAL WEATHER ROUNDUP
NATIONAL WEATHER SERVICE WILMINGTON, OH
200 PM EST THU DEC 18 2014

NOTE: "FAIR" INDICATES FEW OR NO CLOUDS BELOW 12,000 FEET WITH NO
SIGNIFICANT WEATHER AND/OR OBSTRUCTIONS TO VISIBILITY.

OHZ001>008-015>018-024>027-034-035-043-044-182000-
   NORTHWEST OHIO

CITY           SKY/WX    TMP DP  RH WIND       PRES   REMARKS
DEFIANCE       CLOUDY    30  23  75 W8        30.20F WCI  22
FINDLAY        CLOUDY    31  24  75 W10       30.18F WCI  22
TOLEDO EXPRESS CLOUDY    31  25  78 W13       30.18F WCI  21
TOLEDO METCALF CLOUDY    32  24  72 W14       30.19F WCI  22
LIMA           CLOUDY    31  22  69 W8        30.19F WCI  23
$$

OHZ009>014-019>023-028>033-038-089-182000-
   NORTHEAST OHIO

CITY           SKY/WX    TMP DP  RH WIND       PRES   REMARKS
CLE-HOPKINS    FLURRIES  30  23  75 W9        30.19F WCI  22
CLE-LAKEFRONT  CLOUDY    32  24  72 SW13      30.16F WCI  22
CUY CO. ARPT   CLOUDY    32  27  80 W12       30.15F WCI  23
LORAIN-ELYRIA  CLOUDY    30  24  78 W10       30.18F WCI  21
ASHTABULA      CLOUDY    30  25  81 W10       30.13F WCI  21
AKRON-CANTON   CLOUDY    28  21  75 W10       30.15F WCI  19
WOOSTER        CLOUDY    28  22  78 W10       30.17F WCI  19
MANSFIELD      CLOUDY    27  22  81 W9        30.16F WCI  18
YOUNGSTOWN     LGT SNOW  29  23  78 W9        30.13F WCI  20
$$

OHZ042-051>053-060>062-070>072-077>081-182000-
  SOUTHWEST OHIO

CITY           SKY/WX    TMP DP  RH WIND       PRES   REMARKS
CINC-COVINGTON FLURRIES  28  19  69 CALM      30.22F
CINC-LUNKEN    CLOUDY    30  20  66 VRB3      30.26F
HAMILTON       CLOUDY    30  21  69 VRB3      30.25F
DAYTON         CLOUDY    28  21  75 W7        30.22S WCI  21
WRIGHT-PAT AFB CLOUDY    28  20  71 W6        30.22S WCI  22
DAYTON GENERAL CLOUDY    28  19  69 W6        30.21F WCI  22
WILMINGTON     CLOUDY    27  19  72 W5        30.20F WCI  22
$$

OHZ036-037-039>041-045>050-054>059-063>069-073>076-082>088-182000-
  CENTRAL AND SOUTHEAST OHIO

CITY           SKY/WX    TMP DP  RH WIND       PRES   REMARKS
COLUMBUS       CLOUDY    28  20  71 W5        30.20F WCI  23
OSU AIRPORT    CLOUDY    28  21  75 W8        30.20F WCI  20
BOLTON FIELD   CLOUDY    27  21  80 SW3       30.21F
RICKENBACK AFB CLOUDY    28  21  73 SW6       30.22F WCI  22
NEWARK         CLOUDY    29  21  72 W5        30.19F WCI  24
MARION         CLOUDY    28  21  75 NW7       30.18F WCI  21
LANCASTER      CLOUDY    28  21  75 W7        30.21F WCI  21
ZANESVILLE     CLOUDY    27  19  72 NW5       30.19F WCI  22
NEW PHILLY     CLOUDY    30  21  69 W7        30.19F WCI  23
$$


USA.gov is the U.S. government's official web portal to all federal, state and local government web resources and services.